{"data":{"norad_id":53658,"intl_designator":"2022-105L","name":"STARLINK-4452","alt_names":[],"object_type":"PAYLOAD","status":"ACTIVE","operator":null,"country":"US","launch_date":"2022-08-31","launch_site_code":"AFWTR","launch_vehicle":null,"mission":null,"orbit_class":"UNKNOWN","rcs_meters":null,"size_class":null,"mass_kg":null,"dimensions":null,"purposes":["comms"],"wikipedia_slug":null,"has_3d_model":false,"image_url":null,"decayed_at":null,"tle_current":{"epoch":"2026-09-20T21:27:39.039840Z","epoch_age_seconds":47461,"freshness":"FRESH","line1":"1 53658U 22105L   26263.89420185  .00001458  00000+0  47479-4 0  9995","line2":"2 53658  97.2847 140.5651 0001620  90.8699 269.2729 15.33438771222799","mean_motion":15.33438771,"eccentricity":0.000162,"inclination_deg":97.2847,"raan_deg":140.5651,"arg_perigee_deg":90.8699,"mean_anomaly_deg":269.2729,"bstar":4.7479e-5,"rev_number":22279,"period_min":93.906586114354,"perigee_km":464.45302847175,"apogee_km":466.67038685303,"semimajor_km":6843.6987076624,"source":"CELESTRAK","updated_at":"2026-09-21T09:00:32.951217Z"}}}